Regional Weather Roundup
Issued by NWS

Home | Current Version | Previous Version | Graphics & Text | Print | Product List | Glossary On
Versions: 1 2 3 4 5 6 7 8 9 10 11 12 13 14 15 16 17 18 19 20 21 22 23 24 25 26 27 28 29 30 31 32 33 34 35 36 37 38 39 40 41 42 43 44 45 46 47 48 49 50
468
ASUS45 KBOI 191810
RWRID

IDAHO REGIONAL WEATHER ROUNDUP
NATIONAL WEATHER SERVICE BOISE ID
1100 AM MST SUN NOV 19 2017

NOTE: "FAIR" INDICATES FEW OR NO CLOUDS BELOW 12000 FEET
WITH NO SIGNIFICANT WEATHER AND/OR OBSTRUCTIONS TO VISIBILITY

IDZ012-014-191900-
SOUTHWEST IDAHO


CITY           SKY/WX    TMP DP  RH WIND       PRES   REMARKS
BOISE          SUNNY     38  23  55 E8        30.18F WCI  32
CALDWELL       SUNNY     38  25  59 E10       30.21F WCI  31
MOUNTAIN HOME  SUNNY     38  26  61 SE22      30.19F WCI  28
$$

IDZ016-017-191900-
SOUTHCENTRAL IDAHO


CITY           SKY/WX    TMP DP  RH WIND       PRES   REMARKS
BURLEY         SUNNY     39  26  59 NE7       30.19F WCI  34
JEROME         SUNNY     36  25  64 NE15      30.20F WCI  27
TWIN FALLS     SUNNY     32  27  81 E5        30.20F WCI  27
$$

IDZ019>023-191900-
SOUTHEAST IDAHO


CITY           SKY/WX    TMP DP  RH WIND       PRES   REMARKS
IDAHO FALLS    CLOUDY    30  24  78 N6        30.25F WCI  24
POCATELLO      CLOUDY    35  25  66 N5        30.24F WCI  31
REXBURG        CLOUDY    30  21  69 E3        30.23F
$$

IDZ006-010-011-018-031-032-191900-
CENTRAL IDAHO MOUNTAINS


CITY           SKY/WX    TMP DP  RH WIND       PRES   REMARKS
MCCALL         SUNNY     26  21  81 S3        30.13F
HAILEY         MOSUNNY   28  12  50 NW12G17   30.22  WCI  18
STANLEY          N/A     12   6  77 N5        30.19F WCI   4
SALMON         SUNNY     33  20  58 VRB3      30.16F
CHALLIS        SUNNY     29  17  61 CALM      30.17F
$$

IDZ002-004-006-007-026-191900-
NORTHERN IDAHO


CITY           SKY/WX    TMP DP  RH WIND       PRES   REMARKS
LEWISTON       CLOUDY    46  29  51 N3        30.04F
LOWELL           N/A     37  32  82 CALM      30.16F
COEUR D`ALENE  CLOUDY    40  29  64 S10       29.99F WCI  33
MULLAN PASS    PTSUNNY   26  20  77 S8        29.94F WCI  18
$$




USA.gov is the U.S. government's official web portal to all federal, state and local government web resources and services.